Weather History for Marion, OH

Change the Weather History Date:

Friday, January 31, 2014

  Actual Average (KDLZ) Record (KDLZ)
Temperature  
Mean Temperature -1 °C -  
Max Temperature 1 °C 0 °C 15 °C (1988)
Min Temperature -2 °C -7 °C -21 °C (1972)
Degree Days  
Heating Degree Days 34    
Moisture  
Dew Point -5 °C    
Average Humidity 77    
Maximum Humidity 96    
Minimum Humidity 48    
Precipitation  
Precipitation 0.00 mm - - ()
Sea Level Pressure  
Sea Level Pressure 1020 hPa    
Wind  
Wind Speed 13 km/h (South)    
Max Wind Speed 29 km/h    
Max Gust Speed -    
Visibility 9 kilometers    
Events Snow    
Averages and records for this station are not official NWS values.
T = Trace of Precipitation, MM = Missing Value Source: NWS Daily Summary

Daily Weather History Graph

Daily Weather History Graph

Search for Another Location

Airport:

Trip Planner

Search our weather history database for the weather conditions in past years. The results will help you decide how hot, cold, wet, or windy it might be!

Date:

Astronomy

Jan. 31, 2014 Rise Set
Actual Time 7:42 AM EST 5:48 PM EST
Civil Twilight 7:14 AM EST 6:17 PM EST
Nautical Twilight 6:41 AM EST 6:50 PM EST
Astronomical Twilight 6:09 AM EST 7:22 PM EST
Moon 7:51 AM EST (1/31) 7:12 PM EST (1/31)
Length of Visible Light 11h 03m
Length of Day
10h 06m
New Moon, 1% of the Moon is Illuminated
Jan 31
New Moon
Feb 6
First Quarter
Feb 14
Full
Feb 22
Last Quarter
Mar 1
New

Hourly Weather History & Observations

Time (EST) Temp. Windchill Dew Point Humidity Pressure Visibility Wind Dir Wind Speed Gust Speed Precip Events Conditions
12:53 AM -1.7 °C -6.8 °C -10.6 °C 51% 1015.4 hPa 16.1 km SSW 16.7 km/h / 4.6 m/s - N/A   Overcast
1:53 AM -2.2 °C -7.7 °C -10.6 °C 53% 1015.9 hPa 16.1 km SSW 18.5 km/h / 5.1 m/s - N/A   Mostly Cloudy
2:53 AM -2.2 °C -7.4 °C -10.0 °C 56% 1016.4 hPa 16.1 km SSW 16.7 km/h / 4.6 m/s - N/A   Overcast
3:53 AM -2.2 °C -7.4 °C -9.4 °C 58% 1016.3 hPa 16.1 km SSW 16.7 km/h / 4.6 m/s - N/A   Overcast
4:53 AM -1.7 °C -6.8 °C -9.4 °C 56% 1017.4 hPa 16.1 km SSW 16.7 km/h / 4.6 m/s - N/A   Overcast
5:53 AM -1.7 °C -6.1 °C -9.4 °C 56% 1017.5 hPa 16.1 km SSW 13.0 km/h / 3.6 m/s - N/A   Overcast
6:53 AM -2.2 °C -6.7 °C -8.9 °C 61% 1018.1 hPa 16.1 km South 13.0 km/h / 3.6 m/s - N/A   Partly Cloudy
7:53 AM -2.2 °C -6.2 °C -8.9 °C 61% 1018.6 hPa 16.1 km South 11.1 km/h / 3.1 m/s - N/A   Partly Cloudy
8:53 AM -1.7 °C -6.4 °C -8.9 °C 58% 1019.8 hPa 16.1 km SSW 14.8 km/h / 4.1 m/s - N/A   Mostly Cloudy
9:53 AM -1.1 °C -5.7 °C -8.9 °C 56% 1020.0 hPa 16.1 km SSW 14.8 km/h / 4.1 m/s - N/A   Overcast
10:53 AM 0.0 °C -4.7 °C -10.0 °C 48% 1020.7 hPa 16.1 km SW 16.7 km/h / 4.6 m/s - N/A   Overcast
11:53 AM 0.0 °C -5.3 °C -8.9 °C 52% 1020.4 hPa 16.1 km SSW 20.4 km/h / 5.7 m/s - N/A   Overcast
12:53 PM 0.6 °C -5.6 °C -7.8 °C 54% 1020.3 hPa 16.1 km SW 29.6 km/h / 8.2 m/s - N/A   Overcast
1:53 PM -0.6 °C -5.7 °C -5.0 °C 72% 1020.3 hPa 12.9 km SW 18.5 km/h / 5.1 m/s - N/A   Overcast
2:53 PM -0.6 °C -4.3 °C -4.4 °C 76% 1020.5 hPa 11.3 km SW 11.1 km/h / 3.1 m/s - 0.0 mm   Overcast
3:53 PM -1.1 °C -4.4 °C -3.3 °C 85% 1021.5 hPa 6.4 km SSW 9.3 km/h / 2.6 m/s - 0.0 mm Snow Light Snow
4:22 PM -1.1 °C -5.3 °C -3.3 °C 85% 1020.2 hPa 3.2 km SSW 13.0 km/h / 3.6 m/s - 0.0 mm Snow Light Snow
4:29 PM -1.1 °C -4.9 °C -3.3 °C 85% 1020.2 hPa 2.8 km SSW 11.1 km/h / 3.1 m/s - 0.0 mm Snow Light Snow
4:37 PM -1.1 °C -4.4 °C -2.8 °C 88% 1020.2 hPa 4.0 km SSW 9.3 km/h / 2.6 m/s - 0.0 mm Snow Light Snow
4:51 PM -1.0 °C -3.7 °C -3.0 °C 86% 1020.2 hPa 2.8 km SSW 7.4 km/h / 2.1 m/s - 0.0 mm Snow Light Snow
4:53 PM -1.1 °C -4.4 °C -2.8 °C 88% 1021.6 hPa 2.8 km SSW 9.3 km/h / 2.6 m/s - 0.0 mm Snow Light Snow
5:22 PM -1.1 °C -3.8 °C -2.8 °C 88% 1019.9 hPa 4.0 km South 7.4 km/h / 2.1 m/s - 0.0 mm Snow Light Snow
5:32 PM -1.1 °C -3.1 °C -2.8 °C 88% 1019.9 hPa 4.8 km SSW 5.6 km/h / 1.5 m/s - 0.0 mm   Overcast
5:53 PM -1.7 °C -4.5 °C -2.8 °C 92% 1021.5 hPa 4.0 km South 7.4 km/h / 2.1 m/s - 0.0 mm   Overcast
6:03 PM -1.7 °C -5.1 °C -2.8 °C 92% 1020.2 hPa 4.8 km South 9.3 km/h / 2.6 m/s - N/A   Overcast
6:53 PM -1.7 °C -4.5 °C -2.8 °C 92% 1021.6 hPa 4.8 km SSE 7.4 km/h / 2.1 m/s - N/A   Overcast
7:24 PM -1.7 °C -3.8 °C -2.8 °C 92% 1020.9 hPa 4.8 km South 5.6 km/h / 1.5 m/s - 0.0 mm Snow Light Snow
7:32 PM -1.7 °C -4.5 °C -2.2 °C 96% 1020.5 hPa 4.0 km SSE 7.4 km/h / 2.1 m/s - 0.0 mm Snow Light Snow
7:53 PM -1.7 °C -4.5 °C -2.8 °C 92% 1022.0 hPa 4.8 km SSE 7.4 km/h / 2.1 m/s - 0.0 mm   Overcast
8:15 PM -1.7 °C -4.5 °C -2.8 °C 92% 1020.5 hPa 4.0 km SSE 7.4 km/h / 2.1 m/s - N/A   Overcast
8:38 PM -1.7 °C -3.8 °C -2.8 °C 92% 1020.5 hPa 4.8 km SSE 5.6 km/h / 1.5 m/s - N/A   Overcast
8:53 PM -1.7 °C -5.1 °C -2.8 °C 92% 1021.5 hPa 4.8 km SE 9.3 km/h / 2.6 m/s - N/A   Mostly Cloudy
9:40 PM -1.7 °C - -2.8 °C 92% 1019.9 hPa 4.0 km Calm Calm - N/A   Overcast
9:53 PM -1.7 °C -3.8 °C -2.8 °C 92% 1021.2 hPa 4.0 km ESE 5.6 km/h / 1.5 m/s - N/A   Overcast
10:34 PM -1.7 °C -3.8 °C -2.8 °C 92% 1019.5 hPa 4.8 km SSE 5.6 km/h / 1.5 m/s - N/A   Overcast
10:53 PM -1.7 °C - -2.8 °C 92% 1021.0 hPa 6.4 km Calm Calm - N/A   Overcast
11:46 PM -1.7 °C - -2.8 °C 92% 1019.5 hPa 4.0 km Calm Calm - N/A   Overcast
11:53 PM -1.7 °C - -3.3 °C 89% 1020.9 hPa 4.0 km Calm Calm - N/A   Overcast